TimeCXT,TemperatureF,Dew PointF,Humidity,Sea Level PressureIn,VisibilityMPH,Wind Direction,Wind SpeedMPH,Gust SpeedMPH,PrecipitationIn,Events,Conditions,WindDirDegrees,DateUTC
12:00 AM,76,70,76,29.90,,SE,9.2,,,,,130,2012-11-18 17:00:00
12:00 AM,77.0,69.8,78,29.92,6.2,SE,9.2,-,N/A,,Mostly Cloudy,130,2012-11-18 17:00:00
1:00 AM,76,70,75,29.87,,SE,10.4,,,,,130,2012-11-18 18:00:00
1:00 AM,75.2,69.8,83,29.92,6.2,SE,10.4,-,N/A,,Mostly Cloudy,130,2012-11-18 18:00:00
2:00 AM,75.2,69.8,83,29.89,6.2,SE,10.4,-,N/A,,Mostly Cloudy,130,2012-11-18 19:00:00
3:00 AM,76,69,73,29.86,,SE,10.4,,,,,130,2012-11-18 20:00:00
3:00 AM,75.2,69.8,83,29.89,6.2,SE,10.4,-,N/A,,Scattered Clouds,130,2012-11-18 20:00:00
4:00 AM,76,69,72,29.86,,SE,10.4,,,,,130,2012-11-18 21:00:00
4:00 AM,75.2,68.0,78,29.89,6.2,SE,10.4,-,N/A,,Mostly Cloudy,130,2012-11-18 21:00:00
5:00 AM,75.2,69.8,83,29.89,6.2,SE,10.4,-,N/A,,Mostly Cloudy,140,2012-11-18 22:00:00
6:00 AM,76,69,73,29.88,,SE,10.4,,,,,130,2012-11-18 23:00:00
6:00 AM,75.2,69.8,83,29.92,6.2,SE,10.4,-,N/A,,Scattered Clouds,130,2012-11-18 23:00:00
7:00 AM,78,69,68,29.90,,SE,11.5,,,,,130,2012-11-19 00:00:00
7:00 AM,78.8,69.8,74,29.95,6.2,SE,11.5,-,N/A,,Mostly Cloudy,130,2012-11-19 00:00:00
8:00 AM,80.6,68.0,65,29.95,6.2,SE,15.0,-,N/A,,Scattered Clouds,140,2012-11-19 01:00:00
9:00 AM,81,68,57,29.92,,SE,13.8,,,,,130,2012-11-19 02:00:00
9:00 AM,80.6,68.0,65,29.95,6.2,SE,13.8,-,N/A,,Mostly Cloudy,130,2012-11-19 02:00:00
10:00 AM,82,69,57,29.92,,SE,13.8,,,,,140,2012-11-19 03:00:00
10:00 AM,82.4,69.8,66,29.95,6.2,SE,13.8,-,N/A,,Scattered Clouds,140,2012-11-19 03:00:00
11:00 AM,84.2,64.4,51,29.95,6.2,SE,15.0,-,N/A,,Scattered Clouds,130,2012-11-19 04:00:00
12:00 PM,82,68,54,29.89,,SE,15.0,,,,Overcast,130,2012-11-19 05:00:00
12:00 PM,82.4,68.0,62,29.92,6.2,SE,15.0,-,N/A,,Mostly Cloudy,130,2012-11-19 05:00:00
1:00 PM,82,68,53,29.86,,SE,15.0,,,,,140,2012-11-19 06:00:00
1:00 PM,82.4,68.0,62,29.89,6.2,SE,15.0,-,N/A,,Mostly Cloudy,140,2012-11-19 06:00:00
2:00 PM,80.6,68.0,65,29.89,6.2,SE,15.0,-,N/A,,Mostly Cloudy,130,2012-11-19 07:00:00
3:00 PM,80,69,62,29.85,,SE,15.0,,,,Overcast,140,2012-11-19 08:00:00
3:00 PM,80.6,69.8,70,29.89,6.2,SE,15.0,-,N/A,,Mostly Cloudy,140,2012-11-19 08:00:00
4:00 PM,80,69,62,29.85,,SE,13.8,,,,,130,2012-11-19 09:00:00
4:00 PM,80.6,69.8,70,29.89,6.2,SE,13.8,-,N/A,,Mostly Cloudy,130,2012-11-19 09:00:00
5:00 PM,78.8,68.0,69,29.89,6.2,SE,11.5,-,N/A,,Mostly Cloudy,130,2012-11-19 10:00:00
6:00 PM,77,68,68,29.88,,SE,11.5,,,,,140,2012-11-19 11:00:00
6:00 PM,77.0,68.0,74,29.92,6.2,SE,11.5,-,N/A,,Scattered Clouds,140,2012-11-19 11:00:00
7:00 PM,77,69,71,29.90,,SE,11.5,,,,,140,2012-11-19 12:00:00
7:00 PM,77.0,69.8,78,29.92,6.2,SE,11.5,-,N/A,,Mostly Cloudy,140,2012-11-19 12:00:00
8:00 PM,77.0,68.0,74,29.95,6.2,SE,11.5,-,N/A,,Scattered Clouds,140,2012-11-19 13:00:00
9:00 PM,77,68,68,29.93,,SE,10.4,,,,,140,2012-11-19 14:00:00
9:00 PM,77.0,68.0,74,29.95,6.2,SE,10.4,-,N/A,,Mostly Cloudy,140,2012-11-19 14:00:00
10:00 PM,76,69,75,29.92,,SE,12.7,,,,,130,2012-11-19 15:00:00
10:00 PM,77.0,69.8,78,29.95,6.2,SE,12.7,-,N/A,,Scattered Clouds,130,2012-11-19 15:00:00
11:00 PM,77.0,69.8,78,29.95,6.2,SE,11.5,-,N/A,,Scattered Clouds,130,2012-11-19 16:00:00